Location: Austin
(30.3000°N, 97.7500°W)
Time: 05:31:55
(UTC-05:00)

Cosmos 883 Rocket - Pass Details

Date: 16 June 2025
Orbit: 950 x 993 km, 83.0° (Epoch: 07 July)

Event Time Altitude Azimuth Distance (km) Brightness Sun altitude
Rises 05:05:25 0° 352° (N) 3,673 8.0 -15.8°
Reaches altitude 10° 05:07:55 10° 350° (N) 2,729 7.2 -15.4°
Maximum altitude 05:14:10 75° 267° (W) 1,020 4.5 -14.3°
Drops below altitude 10° 05:20:26 10° 183° (S) 2,740 6.5 -13.3°
Sets 05:22:57 0° 181° (S) 3,689 7.2 -12.9°
